STARLINK-36888, 68004

Orbit data source: Space-Track

STARLINK-36888, 68004 is a payload satellite owned by SpaceX/Seattle (US) in LEO that was launched on Fri, 27 Feb 2026 UTC via an FALCON 9 launch vehicle from the Air Force Eastern Test Range (AFETR). Payload-class satellites include a variety of spacecraft equipped with specific instruments for various scientific and technological missions. These include communications satellites like Starlink; space stations such as the ISS; scientific satellites like the Hubble; Earth observation satellites from companies like Planet Labs, Umbra, and HawkEye 360; GPS; miniature CubeSats for education and research; and military/defense satellites.

Loading next visibility...
Identifier
68004, 2026-039U
Orbit
LEO
Country
Flag of USUS
Related business
Manufacturer
SpaceX/Seattle
Mission
Operational Commercial Communications
Bus & Motor
STARLINK V2MO, Unknown motor
Mass
575 kg wet, ~530 kg dry
Launch date (UTC)
2026-02-27 (4 months ago)
Launch vehicle
FALCON 9
Launch site
Air Force Eastern Test Range (AFETR)
Object type
Payload
Rocket body
Debris
Shape & HBR
Box + 2 Pan, 17.7 m
Radar Cross Section
36.964 m², Large (>1 m²)

Expand to show TLE details & history
Last TLE update: 19 hours ago

TLE from 19 hours ago
0 STARLINK-36888
1 68004U 26039U   26171.04744525  .00019353  00000-0  71044-3 0  9996
2 68004  43.0024 191.2210 0002082 285.1120  74.9502 15.27603645 17352
Epoch: 2026-06-20T01:08Z
TLE epoch observation values (Epoch: 2026-06-20T01:08:19.269Z)
Latitude
0.00003°
Longitude
-94.12694°
Altitude
482.383 km
Speed
7.626 km/s
True Right ascension
12h 44m 53s
True Declination
0° 00' 00"
Sunlit
Object was in daylight at epoch
Visualization orbit readout
Latitude
Unknown
Longitude
Unknown
Altitude
Unknown
Speed
Unknown
Apparent Right ascension
Unknown
Apparent Declination
Unknown
Sunlit
N/A
Visualization observer readout
Local Sidereal Time
07:20:10
Azimuth
Unknown
Elevation
Unknown
Doppler factor
Unknown
Orbital elements
Apogee altitude
486.352 km
Perigee altitude
483.494 km
Semi-major axis
6,863.06 km
Eccentricity
0.00021
Inclination
43.0024°
RAAN
191.221°
Arg. of periapsis
285.112°
True anomaly
74.97324°
Mean anomaly
74.9502°
Eccentric anomaly
74.96172°
Mean motion
3.81739 °/min
Orbital period
94.31 mins
BSTAR
0.00071044
Loading maneuver chart data...
Computing Atmospheric mass density...
Loading historical data...
Loading historical data...
Loading historical data...
Loading historical data...
Loading historical data...
Loading historical data...
Loading historical data...

Documentation

Showing up to 5 results
|